Total_Precipitation_Accumulation
0.02 0.04 0.10 0.12 0.10 0.08 0.09 0.12 0.14 0.13 0.11 0.09 0.09 0.07 0.04 0.03 0.03 0.03 0.02 0.02 0.03 0.04 0.03 0.03 0.04 0.04 0.04 0.04 0.04 0.04 0.04 0.06 0.10 0.16 0.20 0.23 0.29 0.41 0.57 0.71 0.76 0.59 0.41
0.01 0.02 0.09 0.13 0.12 0.10 0.09 0.11 0.12 0.12 0.11 0.10 0.09 0.08 0.05 0.04 0.04 0.03 0.03 0.03 0.04 0.04 0.04 0.04 0.04 0.04 0.03 0.03 0.03 0.03 0.04 0.08 0.17 0.27 0.37 0.35 0.40 0.51 0.58 0.57 0.68 0.52 0.36
0.00 0.01 0.05 0.13 0.14 0.11 0.10 0.11 0.12 0.11 0.10 0.10 0.08 0.07 0.05 0.04 0.04 0.03 0.03 0.03 0.03 0.04 0.04 0.05 0.04 0.04 0.03 0.03 0.03 0.03 0.05 0.11 0.21 0.38 0.68 0.62 0.41 0.53 0.53 0.52 0.54 0.33 0.25
0.01 0.01 0.01 0.08 0.13 0.13 0.11 0.12 0.12 0.10 0.09 0.08 0.08 0.06 0.05 0.04 0.03 0.03 0.03 0.03 0.04 0.05 0.05 0.05 0.04 0.03 0.03 0.03 0.03 0.03 0.07 0.14 0.26 0.51 0.92 0.66 0.29 0.33 0.39 0.34 0.33 0.22 0.18
0.01 0.01 0.02 0.06 0.10 0.13 0.13 0.13 0.12 0.10 0.09 0.07 0.06 0.05 0.04 0.03 0.03 0.04 0.04 0.04 0.05 0.06 0.07 0.06 0.04 0.04 0.02 0.02 0.02 0.04 0.08 0.14 0.28 0.47 0.60 0.65 0.65 0.34 0.27 0.23 0.22 0.20 0.16
0.01 0.01 0.04 0.08 0.10 0.12 0.13 0.13 0.11 0.09 0.07 0.07 0.06 0.05 0.04 0.04 0.05 0.05 0.06 0.06 0.06 0.08 0.10 0.09 0.06 0.05 0.04 0.03 0.03 0.04 0.08 0.16 0.25 0.29 0.30 0.40 0.56 0.33 0.27 0.28 0.23 0.20 0.15
0.02 0.03 0.05 0.10 0.12 0.12 0.13 0.13 0.12 0.10 0.08 0.07 0.06 0.06 0.06 0.06 0.08 0.09 0.10 0.10 0.10 0.11 0.13 0.13 0.11 0.08 0.06 0.05 0.04 0.05 0.09 0.19 0.28 0.30 0.29 0.38 0.49 0.30 0.43 0.59 0.47 0.34 0.22
0.03 0.03 0.05 0.10 0.14 0.15 0.15 0.15 0.15 0.13 0.11 0.10 0.09 0.09 0.09 0.10 0.11 0.14 0.15 0.16 0.17 0.18 0.18 0.17 0.15 0.12 0.09 0.07 0.08 0.08 0.13 0.18 0.23 0.33 0.36 0.39 0.32 0.27 0.53 0.77 0.71 0.61 0.47
0.05 0.05 0.06 0.07 0.10 0.14 0.18 0.18 0.17 0.16 0.15 0.14 0.13 0.12 0.12 0.12 0.13 0.15 0.18 0.19 0.20 0.22 0.22 0.21 0.21 0.20 0.18 0.13 0.12 0.13 0.16 0.19 0.26 0.35 0.38 0.42 0.30 0.34 0.54 0.67 0.68 0.68 0.60
0.08 0.08 0.09 0.10 0.14 0.13 0.14 0.15 0.17 0.16 0.15 0.14 0.15 0.16 0.17 0.16 0.18 0.22 0.25 0.26 0.28 0.28 0.28 0.29 0.32 0.33 0.29 0.23 0.19 0.19 0.20 0.16 0.14 0.27 0.45 0.48 0.37 0.53 0.71 0.70 0.75 0.80 0.71
0.17 0.17 0.15 0.17 0.17 0.20 0.19 0.20 0.26 0.27 0.27 0.28 0.31 0.30 0.34 0.45 0.52 0.58 0.49 0.49 0.50 0.55 0.57 0.56 0.56 0.59 0.56 0.40 0.35 0.42 0.34 0.16 0.22 0.36 0.54 0.45 0.44 0.66 0.87 0.91 0.89 0.84 0.80
0.28 0.30 0.29 0.25 0.24 0.28 0.33 0.39 0.60 0.64 0.72 0.76 0.84 0.84 0.89 0.82 0.70 0.59 0.62 0.76 0.83 0.99 1.10 1.20 1.29 1.12 0.91 0.76 0.88 1.12 0.54 0.32 0.36 0.43 0.61 0.54 0.65 0.94 1.11 1.11 0.98 0.83 0.79
0.48 0.42 0.43 0.39 0.38 0.45 0.58 0.63 0.76 0.87 1.02 1.10 1.07 1.15 1.25 1.09 0.91 0.81 0.93 1.11 1.21 1.37 1.48 1.78 1.94 1.42 1.37 1.50 1.52 1.44 1.00 0.82 0.70 0.83 0.95 1.05 1.13 1.36 1.39 1.36 1.25 1.05 0.91
0.66 0.61 0.71 0.67 0.62 0.67 0.76 0.86 0.82 0.80 0.89 1.03 1.12 1.16 1.33 1.24 1.13 1.16 1.19 1.25 1.47 1.63 1.87 1.89 2.04 2.03 2.04 1.92 1.86 1.79 1.60 1.29 1.17 1.40 1.74 1.73 1.68 1.65 1.75 1.63 1.43 1.31 1.19
0.94 0.95 0.95 0.96 0.99 1.08 1.09 1.05 0.84 0.81 0.81 0.84 0.96 1.02 1.29 1.50 1.47 1.58 1.41 1.36 1.24 1.54 1.92 2.13 2.18 2.34 2.42 2.37 2.06 1.80 1.70 1.48 1.28 1.40 1.66 1.89 1.95 1.82 1.83 1.84 1.62 1.51 1.47
1.24 1.36 1.38 1.44 1.46 1.47 1.34 1.20 1.07 0.93 0.88 0.84 0.94 1.12 1.58 1.75 1.66 1.72 1.67 1.58 1.35 1.51 1.85 2.20 2.28 2.49 2.44 2.47 1.96 1.71 1.63 1.61 1.39 1.28 1.38 1.73 1.71 1.61 1.57 1.71 1.76 1.72 1.68
1.63 1.77 1.90 1.98 1.87 1.83 1.70 1.42 1.18 0.97 0.83 0.93 1.12 1.33 1.63 1.79 1.88 2.06 1.95 1.64 1.49 1.67 1.87 1.90 2.02 2.47 2.31 2.25 2.03 2.00 1.93 1.72 1.51 1.37 1.33 1.42 1.42 1.50 1.46 1.47 1.65 1.76 1.83
2.02 2.39 2.59 2.60 2.59 2.52 2.15 1.80 1.54 1.34 1.23 1.31 1.41 1.38 1.36 1.53 1.71 1.89 1.62 1.31 1.48 1.76 1.90 1.81 1.81 2.17 2.21 2.19 2.15 2.04 1.94 1.73 1.51 1.40 1.34 1.24 1.21 1.08 1.20 1.36 1.55 1.69 1.91
2.43 2.91 3.29 3.43 3.22 2.87 2.31 1.88 1.53 1.53 1.51 1.49 1.41 1.23 1.10 1.03 1.08 1.19 1.03 0.98 1.21 1.48 1.48 1.32 1.44 1.71 1.79 1.86 1.82 1.59 1.41 1.22 1.10 1.09 1.04 0.96 1.05 1.04 1.07 1.13 1.36 1.52 1.81
2.53 3.02 3.36 3.52 3.18 2.60 2.20 2.01 1.70 1.53 1.42 1.38 1.24 1.02 0.83 0.77 0.75 0.83 0.82 0.79 0.88 0.92 0.94 1.10 1.25 1.39 1.29 1.35 1.28 1.07 1.03 0.90 0.84 0.80 0.68 0.67 0.75 0.75 0.78 0.97 1.18 1.10 1.38
2.85 3.37 3.52 3.26 2.56 2.08 1.77 1.62 1.41 1.22 1.05 0.95 0.87 0.78 0.69 0.69 0.64 0.64 0.61 0.63 0.69 0.69 0.68 0.83 0.95 0.96 0.79 0.95 1.02 0.80 0.65 0.58 0.57 0.56 0.51 0.50 0.51 0.55 0.67 0.88 1.01 1.01 0.96
2.83 2.95 2.78 2.38 1.75 1.35 1.12 0.97 0.78 0.64 0.57 0.55 0.52 0.52 0.53 0.54 0.54 0.53 0.50 0.48 0.49 0.52 0.54 0.60 0.71 0.71 0.63 0.74 0.83 0.76 0.56 0.50 0.44 0.34 0.37 0.38 0.37 0.48 0.55 0.67 0.88 1.06 1.04
2.52 2.12 1.64 1.26 0.94 0.81 0.66 0.54 0.40 0.33 0.29 0.28 0.29 0.31 0.33 0.33 0.33 0.33 0.32 0.32 0.34 0.39 0.42 0.49 0.57 0.59 0.54 0.52 0.63 0.73 0.56 0.43 0.38 0.34 0.34 0.36 0.43 0.47 0.51 0.65 0.76 0.97 1.12
1.81 1.32 0.99 0.80 0.60 0.50 0.42 0.40 0.34 0.27 0.25 0.25 0.23 0.24 0.24 0.22 0.23 0.23 0.21 0.21 0.22 0.25 0.33 0.35 0.44 0.55 0.54 0.43 0.46 0.55 0.55 0.51 0.44 0.38 0.37 0.35 0.40 0.42 0.49 0.56 0.70 0.88 1.00
0.84 0.82 0.78 0.69 0.62 0.52 0.44 0.41 0.35 0.26 0.24 0.23 0.23 0.24 0.26 0.26 0.24 0.23 0.22 0.21 0.21 0.21 0.24 0.28 0.36 0.46 0.52 0.47 0.44 0.49 0.58 0.57 0.49 0.44 0.38 0.38 0.43 0.37 0.45 0.59 0.70 0.79 0.88
0.40 0.46 0.48 0.46 0.52 0.53 0.48 0.41 0.36 0.31 0.26 0.23 0.22 0.21 0.21 0.23 0.25 0.25 0.25 0.26 0.26 0.26 0.26 0.26 0.28 0.33 0.45 0.53 0.53 0.51 0.55 0.56 0.46 0.43 0.35 0.32 0.40 0.39 0.51 0.70 0.76 0.83 0.89